Dewpoint
44 44 44 44 44 44 44 44 44 45 44 45 45 46 46 46 48 49 51 52 55 56 55 63 66 65 65 64 64 64 63 63 64 61 59 60 63 63 63 63 63 62 62
42 43 43 43 43 43 42 42 42 42 42 43 45 45 44 47 46 48 48 49 50 52 53 55 60 65 65 64 63 64 63 64 64 62 61 58 59 61 62 63 63 62 63
41 41 41 42 41 41 41 41 41 41 41 42 42 41 42 43 44 43 44 46 47 48 50 52 54 56 64 65 64 63 62 60 61 61 59 55 55 56 58 61 61 61 61
39 39 39 40 39 39 40 40 40 39 40 40 40 39 39 39 40 41 42 43 45 47 49 51 53 55 58 62 64 63 62 59 56 56 58 58 57 53 53 57 61 61 60
40 37 38 38 38 38 38 37 37 37 37 38 39 39 38 38 39 40 41 42 44 46 48 49 50 52 54 58 63 61 57 57 55 54 56 56 58 57 54 51 57 60 60
37 36 37 37 37 37 36 36 35 34 36 37 37 37 37 37 38 39 40 42 44 45 47 48 50 52 55 58 61 62 60 57 56 55 56 57 57 55 54 51 54 55 58
37 35 35 35 36 36 35 35 35 34 34 35 35 36 36 37 38 38 40 40 42 44 46 48 50 51 52 55 60 60 59 58 58 57 56 57 54 56 57 54 52 53 56
36 34 34 34 34 34 33 33 34 34 34 34 34 35 36 37 37 37 38 39 42 43 45 47 49 50 52 54 57 61 60 59 59 59 59 57 58 59 58 57 54 52 54
35 34 34 33 33 33 34 33 34 34 34 34 34 35 36 36 37 37 38 39 40 41 43 44 47 49 53 53 55 60 59 60 60 59 59 59 59 60 59 59 57 54 52
34 33 33 32 32 32 33 33 34 33 34 33 33 34 34 35 36 37 37 37 39 40 41 42 45 48 52 54 54 56 59 59 59 59 59 59 59 59 59 59 57 56 53
29 30 31 32 31 31 32 32 32 32 32 32 33 33 33 34 35 35 35 36 37 38 39 40 43 47 49 56 55 54 57 59 59 58 57 59 59 59 59 59 58 57 55
29 28 29 29 30 30 31 31 31 31 32 32 32 32 32 32 32 33 33 34 34 36 37 38 40 43 44 48 58 56 57 58 58 58 57 56 58 58 59 59 58 57 57
28 28 28 28 28 30 30 31 30 31 32 32 31 32 32 31 31 31 31 31 32 32 33 36 37 38 39 40 46 57 57 58 57 58 57 55 55 55 56 57 57 58 57
27 26 26 26 28 29 29 30 30 31 31 31 32 32 31 32 31 31 30 30 30 30 30 32 34 35 36 37 38 43 52 57 58 58 58 58 55 55 57 57 55 56 57
25 25 25 25 27 28 28 29 29 31 30 30 31 31 32 32 32 32 32 30 30 29 30 30 31 32 34 35 36 42 48 51 56 57 55 56 56 52 53 56 57 57 57
25 25 25 25 26 26 27 27 28 29 29 28 30 30 30 30 32 32 31 30 29 29 29 29 30 30 31 35 35 37 37 36 42 49 46 44 43 41 41 41 43 53 56
25 26 27 27 28 30 31 30 29 29 28 29 29 29 29 29 30 31 30 30 29 27 28 28 30 30 30 33 34 34 33 32 32 33 37 41 41 41 39 37 37 36 36
25 27 28 30 31 32 32 31 30 30 27 27 27 28 27 28 28 28 29 28 29 28 27 27 28 30 31 32 31 32 33 31 30 31 32 33 34 36 39 37 34 33 33
28 29 30 30 30 29 32 32 30 31 28 27 26 26 25 24 25 25 26 27 26 26 26 27 27 28 30 33 32 29 29 29 30 30 31 31 31 34 35 35 33 31 30
30 29 27 24 26 28 29 31 31 29 29 28 27 26 26 24 22 21 23 24 24 23 23 24 25 27 28 32 33 30 28 27 28 28 29 31 30 31 31 30 31 28 27
29 27 27 26 26 28 28 25 26 25 28 30 27 26 25 24 23 22 22 22 22 22 21 22 23 24 26 28 32 32 28 28 27 27 27 29 30 30 30 30 28 27 27
27 25 24 24 24 23 23 24 24 25 26 26 27 26 25 25 24 22 22 21 21 20 20 21 22 24 25 26 28 29 29 29 27 26 28 28 30 30 29 28 28 28 27
24 21 19 18 20 21 23 22 23 25 24 24 24 25 25 24 24 22 22 21 21 21 20 20 21 22 24 24 25 27 26 27 26 27 28 28 28 28 27 29 28 26 25
19 18 17 17 19 20 21 22 23 23 23 21 22 23 23 24 24 23 22 19 18 20 20 20 20 20 23 22 23 23 24 23 23 23 23 24 25 25 26 26 27 27 26
19 19 17 17 18 18 19 20 21 22 22 23 22 22 23 23 23 24 25 20 19 21 21 22 22 20 20 23 22 21 21 21 21 20 20 20 20 20 22 23 24 25 25
17 16 15 14 15 15 16 17 19 21 20 20 22 22 21 21 21 20 20 24 18 18 21 22 22 20 19 20 21 21 20 20 20 17 17 17 17 17 18 19 21 22 23
Lifted_Index
1 1 2 3 4 5 5 5 6 7 8 9 9 9 9 9 9 8 6 3 1 -1 -2 -2 -3 -3 -4 -4 -4 -4 -5 -5 -5 -5 -5 -5 -5 -5 -4 -4 -3 -3 -2
1 1 1 2 3 4 5 5 7 8 8 9 9 9 9 9 8 8 7 6 4 2 0 -1 -2 -3 -3 -4 -4 -4 -4 -4 -4 -4 -4 -4 -4 -5 -4 -3 -3 -2 -2
1 1 0 1 2 3 5 6 7 8 8 8 9 9 8 8 8 8 7 7 6 5 4 2 0 -1 -2 -3 -4 -4 -4 -3 -3 -3 -2 -1 -2 -3 -3 -3 -2 -2 -1
1 1 1 1 2 4 6 7 8 8 9 9 9 8 8 8 8 7 7 6 6 6 6 5 3 1 -0 -2 -3 -4 -4 -3 -3 -2 -1 0 -0 -1 -2 -2 -2 -1 -1
1 1 1 2 4 6 7 8 9 9 9 9 9 8 8 8 7 7 6 5 5 5 5 5 5 4 2 0 -2 -3 -3 -3 -2 -2 -1 0 0 -1 -1 -1 -1 -1 -1
1 2 2 4 6 7 8 8 8 8 9 9 9 8 8 8 7 7 6 5 4 4 4 4 4 4 4 2 -0 -2 -3 -2 -2 -2 -1 -1 -1 -1 -1 -1 -1 -1 -1
3 3 4 6 7 8 8 8 8 8 8 8 8 8 7 7 7 7 6 5 4 4 4 3 3 3 4 3 1 -1 -2 -2 -2 -1 -1 -1 -1 -1 -1 -1 -1 -1 -0
5 5 6 7 8 8 8 8 8 8 8 8 7 7 7 7 7 6 6 5 5 4 3 3 3 2 3 3 2 -0 -2 -2 -2 -1 -1 -1 -1 -1 -2 -2 -1 -1 0
6 7 7 8 9 9 9 9 8 8 8 8 7 7 7 6 6 6 6 6 5 4 4 3 2 2 2 2 2 1 -1 -2 -1 -1 -1 -2 -2 -2 -2 -2 -1 -1 -0
7 8 8 9 10 10 10 9 9 8 8 8 7 7 7 7 7 7 6 6 6 5 4 4 3 2 1 1 2 1 -0 -1 -1 -1 -1 -2 -2 -2 -2 -2 -2 -1 -1
8 8 9 9 10 10 10 9 9 8 8 8 8 8 8 8 7 7 7 7 6 6 5 4 3 2 0 0 1 1 0 -1 -1 -1 -1 -2 -2 -2 -2 -2 -2 -2 -2
8 9 9 9 10 10 10 10 10 9 9 9 9 9 9 9 8 8 8 7 7 6 6 5 4 2 1 -0 -0 -0 -0 -1 -1 -1 -1 -1 -2 -2 -2 -2 -2 -2 -1
8 8 9 10 10 10 10 10 10 10 11 11 10 10 10 10 9 9 9 9 8 8 7 6 4 3 1 1 -0 -0 -0 -0 -1 -1 -1 -1 -1 -1 -1 -1 -1 -1 -0
8 9 9 10 10 10 10 11 11 11 11 11 11 11 11 11 11 11 10 10 10 9 8 7 5 4 2 1 1 1 1 0 -0 -1 -1 -1 -0 0 0 0 0 1 0
9 9 10 10 11 11 11 11 12 12 12 12 11 11 11 12 12 12 12 12 11 11 10 9 7 5 3 2 2 2 2 2 1 -0 -1 -1 0 1 1 1 1 1 1
9 9 10 11 11 12 12 13 13 13 13 12 12 12 12 12 12 13 13 13 13 12 11 10 9 7 5 4 3 3 3 3 2 0 -0 0 0 1 1 1 1 1 1
9 9 11 12 12 13 14 14 14 14 13 12 12 13 13 13 13 13 13 14 13 13 13 12 11 10 9 7 6 5 4 3 2 1 0 1 1 1 1 1 1 1 1
10 10 11 12 13 14 14 14 14 13 12 12 12 13 13 13 13 13 13 14 14 14 13 13 13 12 12 12 10 8 6 5 4 4 3 2 1 1 1 1 1 1 1
10 11 12 13 13 13 13 12 12 11 11 11 12 13 13 13 13 13 13 13 14 14 14 14 14 14 15 15 13 11 9 8 8 7 6 4 3 2 2 2 1 1 1
10 11 11 11 11 11 10 10 10 10 11 12 12 13 14 14 14 14 14 14 14 14 15 15 15 15 16 16 15 14 12 11 10 10 10 8 7 5 4 3 2 2 2
10 11 11 10 10 10 10 9 10 11 13 14 14 14 15 15 15 15 14 14 14 15 15 15 16 17 18 18 17 16 15 13 12 11 11 12 11 10 8 7 6 5 4
10 10 10 10 11 11 11 11 11 13 15 15 15 15 15 16 16 15 15 14 14 14 15 15 16 17 19 19 19 19 18 16 15 14 14 14 14 13 12 11 11 9 8
10 11 11 11 12 13 13 12 13 15 16 15 15 15 16 16 16 16 16 15 15 15 15 15 16 17 18 19 20 20 19 19 18 17 17 17 16 15 14 14 14 13 12
11 12 12 12 12 14 14 14 15 16 16 16 16 16 17 17 17 17 17 17 17 17 17 17 17 17 18 19 20 20 20 20 19 18 18 17 17 16 16 15 15 15 15
12 12 13 13 13 15 16 16 17 17 17 16 16 17 17 17 17 18 18 19 20 20 20 20 20 20 20 21 21 21 21 20 20 19 18 17 17 16 16 16 16 17 17
12 13 13 13 15 16 16 17 17 17 17 16 17 17 17 17 18 18 19 20 21 22 22 22 22 22 22 22 23 22 22 21 21 19 17 17 16 16 16 16 17 17 17